This is the latest recevied weather packets stored in our database for station/object K1RFS. If no packets are shown the sender has not sent any weather packets the latest 10 day(s).
| Time | Temp. | Humidity | Pressure | Rain* | Wind** | Luminosity | Snow |
|---|---|---|---|---|---|---|---|
| 1787369172 | 27.22° C | 33% | 1006.8 hPa | 0 mm | - | 0 W/m² | - |
| 1787368868 | 27.22° C | 33% | 1006.9 hPa | 0 mm | - | 0 W/m² | - |
| 1787368567 | 27.78° C | 33% | 1006.6 hPa | 0 mm | - | 0 W/m² | - |
| 1787368263 | 27.78° C | 33% | 1006.5 hPa | 0 mm | - | 0 W/m² | - |
| 1787367959 | 27.22° C | 34% | 1006.6 hPa | 0 mm | - | 0 W/m² | - |
| 1787367654 | 27.78° C | 34% | 1006.4 hPa | 0 mm | - | 0 W/m² | - |
| 1787367352 | 27.78° C | 33% | 1006.6 hPa | 0 mm | - | 0 W/m² | - |
| 1787367047 | 27.78° C | 33% | 1006.5 hPa | 0 mm | - | 0 W/m² | - |
| 1787366742 | 27.78° C | 34% | 1006.6 hPa | 0 mm | - | 0 W/m² | - |
| 1787366442 | 27.78° C | 34% | 1006.5 hPa | 0 mm | - | 0 W/m² | - |
| 1787366137 | 27.78° C | 33% | 1006.6 hPa | 0 mm | - | 0 W/m² | - |
| 1787365834 | 27.78° C | 34% | 1006.4 hPa | 0 mm | - | 0 W/m² | - |
| 1787365533 | 27.78° C | 33% | 1006.3 hPa | 0 mm | - | 0 W/m² | - |
| 1787365229 | 28.33° C | 33% | 1006.6 hPa | 0 mm | - | 1 W/m² | - |
| 1787364925 | 28.33° C | 34% | 1006.6 hPa | 0 mm | - | 1 W/m² | - |
| 1787364621 | 28.33° C | 34% | 1006.5 hPa | 0 mm | - | 2 W/m² | - |
| 1787364316 | 27.78° C | 34% | 1006.5 hPa | 0 mm | - | 4 W/m² | - |
| 1787364011 | 27.78° C | 34% | 1006.4 hPa | 0 mm | - | 5 W/m² | - |
| 1787363710 | 27.78° C | 34% | 1006.6 hPa | 0 mm | - | 6 W/m² | - |
| 1787363405 | 27.78° C | 34% | 1006.5 hPa | 0 mm | - | 6 W/m² | - |
| 1787363100 | 28.33° C | 36% | 1006.9 hPa | 0 mm | - | 5 W/m² | - |
| 1787362795 | 28.33° C | 34% | 1006.8 hPa | 0 mm | - | 4 W/m² | - |
| 1787362495 | 28.33° C | 35% | 1006.8 hPa | 0 mm | - | 5 W/m² | - |
| 1787362190 | 27.78° C | 35% | 1006.8 hPa | 0 mm | - | 8 W/m² | - |
| 1787361890 | 27.78° C | 35% | 1006.8 hPa | 0 mm | - | 12 W/m² | - |
* Rain latest hour (hover to see other rain measurements)
** Current wind speed in m/s (hover to see current wind gust speed)